This is the latest recevied weather packets stored in our database for station/object KI4HRG. If no packets are shown the sender has not sent any weather packets the latest 10 day(s).
| Time | Temp. | Humidity | Pressure | Rain* | Wind** | Luminosity | Snow |
|---|---|---|---|---|---|---|---|
| 1778111998 | 22.22° C | 99% | 1010.8 hPa | 0 mm | - | 3 W/m² | - |
| 1778111696 | 22.22° C | 99% | 1011.2 hPa | 0 mm | - | 2 W/m² | - |
| 1778111392 | 22.22° C | 99% | 1010.6 hPa | 0 mm | - | 3 W/m² | - |
| 1778111090 | 22.78° C | 99% | 1010.8 hPa | 0 mm | - | 4 W/m² | - |
| 1778110787 | 22.78° C | 99% | 1011 hPa | 0 mm | - | 6 W/m² | - |
| 1778110483 | 22.22° C | 99% | 1011.4 hPa | 0 mm | - | 11 W/m² | - |
| 1778110180 | 22.78° C | 99% | 1011.1 hPa | 0 mm | - | 19 W/m² | - |
| 1778109876 | 22.78° C | 99% | 1011.3 hPa | 0 mm | - | 13 W/m² | - |
| 1778109572 | 22.78° C | 99% | 1011.5 hPa | 0 mm | - | 18 W/m² | - |
| 1778109270 | 22.78° C | 99% | 1011.5 hPa | 0 mm | - | 21 W/m² | - |
| 1778108967 | 22.78° C | 99% | 1011.6 hPa | 0 mm | - | 15 W/m² | - |
| 1778108663 | 22.78° C | 99% | 1011.4 hPa | 0 mm | - | 17 W/m² | - |
| 1778108360 | 22.78° C | 99% | 1011.8 hPa | 0 mm | - | 15 W/m² | - |
| 1778108057 | 22.78° C | 99% | 1011.7 hPa | 0 mm | - | 11 W/m² | - |
| 1778107754 | 22.78° C | 99% | 1011.5 hPa | 0 mm | - | 26 W/m² | - |
| 1778107452 | 22.78° C | 99% | 1011.6 hPa | 0 mm | - | 59 W/m² | - |
| 1778107148 | 22.78° C | 99% | 1011.3 hPa | 0 mm | - | 57 W/m² | - |
| 1778106843 | 22.78° C | 99% | 1011.2 hPa | 0 mm | - | 89 W/m² | - |
| 1778106540 | 22.78° C | 99% | 1011.2 hPa | 0 mm | - | 89 W/m² | - |
| 1778106236 | 22.22° C | 99% | 1011.5 hPa | 0 mm | - | 62 W/m² | - |
| 1778105934 | 22.78° C | 99% | 1011.4 hPa | 0 mm | - | 56 W/m² | - |
| 1778105631 | 22.78° C | 99% | 1011.3 hPa | 0 mm | - | 86 W/m² | - |
| 1778105328 | 22.78° C | 99% | 1011.3 hPa | 0 mm | - | 75 W/m² | - |
| 1778105023 | 22.22° C | 99% | 1011.6 hPa | 0 mm | - | 62 W/m² | - |
| 1778104721 | 22.78° C | 99% | 1011.5 hPa | 0 mm | - | 85 W/m² | - |
* Rain latest hour (hover to see other rain measurements)
** Current wind speed in m/s (hover to see current wind gust speed)